Tiempo cada hora Abejorral

Hoy, 2 Diciembre, Miércoles

Tiempo Temperatura Precipitaciones Viento Presión Humedad
00:00 +12°C° 0.4 mm 0 mps 584 mmHg 98%
01:00 +11°C° 0.4 mm 0 mps 583 mmHg 98%
02:00 +11°C° 0.4 mm 0 mps 583 mmHg 98%
03:00 +11°C° 0.4 mm 0 mps 583 mmHg 98%
04:00 +11°C° 0.4 mm 0 mps 583 mmHg 98%
05:00 +11°C° 0.1 mm 0 mps 583 mmHg 98%
06:00 +12°C° 0.1 mm 0 mps 584 mmHg 97%
07:00 +12°C° 0.1 mm 0 mps 585 mmHg 97%
08:00 +14°C° 0.2 mm 0 mps 585 mmHg 92%
09:00 +15°C° 0.2 mm 0 mps 586 mmHg 86%
10:00 +19°C° 0.2 mm 1 mps 587 mmHg 81%
11:00 +18°C° 1.1 mm 0 mps 587 mmHg 81%
12:00 +18°C° 1.1 mm 0 mps 587 mmHg 80%
13:00 +19°C° 1.1 mm 0 mps 586 mmHg 79%
14:00 +18°C° 1.4 mm 0 mps 586 mmHg 84%
15:00 +18°C° 1.4 mm 0 mps 585 mmHg 88%
16:00 +17°C° 1.4 mm 0 mps 584 mmHg 93%
17:00 +15°C° 1.3 mm 0 mps 584 mmHg 94%
18:00 +14°C° 1.3 mm 0 mps 584 mmHg 96%
19:00 +14°C° 1.3 mm 1 mps 584 mmHg 97%
20:00 +12°C° 0.9 mm 0 mps 584 mmHg 97%
21:00 +12°C° 0.9 mm 0 mps 584 mmHg 97%
22:00 +12°C° 0.9 mm 0 mps 585 mmHg 97%
23:00 +12°C° 1.1 mm 0 mps 585 mmHg 98%

Mañana, 3 Diciembre, Jueves

Tiempo Temperatura Precipitaciones Viento Presión Humedad
00:00 +12°C° 1.1 mm 0 mps 584 mmHg 98%
01:00 +12°C° 1.1 mm 0 mps 584 mmHg 99%
02:00 +12°C° 2.9 mm 0 mps 584 mmHg 99%
03:00 +12°C° 2.9 mm 0 mps 584 mmHg 99%
04:00 +12°C° 2.9 mm 0 mps 584 mmHg 99%
05:00 +12°C° 3.1 mm 0 mps 584 mmHg 99%
06:00 +12°C° 3.1 mm 0 mps 584 mmHg 99%
07:00 +12°C° 3.1 mm 0 mps 585 mmHg 99%
08:00 +13°C° 0.5 mm 0 mps 585 mmHg 98%
09:00 +13°C° 0.5 mm 0 mps 585 mmHg 96%
10:00 +14°C° 0.5 mm 0 mps 586 mmHg 95%
11:00 +15°C° 0.3 mm 0 mps 586 mmHg 87%
12:00 +19°C° 0.3 mm 1 mps 586 mmHg 79%
13:00 +21°C° 0.3 mm 1 mps 586 mmHg 71%
14:00 +20°C° 1.1 mm 1 mps 586 mmHg 78%
15:00 +18°C° 1.1 mm 0 mps 585 mmHg 84%
16:00 +17°C° 1.1 mm 0 mps 585 mmHg 90%
17:00 +16°C° 0.7 mm 0 mps 584 mmHg 93%
18:00 +14°C° 0.7 mm 0 mps 584 mmHg 95%
19:00 +13°C° 0.7 mm 0 mps 584 mmHg 97%
20:00 +13°C° 0.4 mm 0 mps 584 mmHg 97%
21:00 +12°C° 0.4 mm 0 mps 585 mmHg 97%
22:00 +12°C° 0.4 mm 0 mps 585 mmHg 97%
23:00 +12°C° 0.3 mm 0 mps 585 mmHg 98%

Pasado mañana, 4 Diciembre, Viernes

Tiempo Temperatura Precipitaciones Viento Presión Humedad
00:00 +12°C° 0.3 mm 0 mps 585 mmHg 98%
01:00 +12°C° 0.3 mm 0 mps 584 mmHg 98%
02:00 +12°C° 0.1 mm 0 mps 584 mmHg 98%
03:00 +12°C° 0.1 mm 0 mps 584 mmHg 98%
04:00 +12°C° 0.1 mm 0 mps 584 mmHg 98%
05:00 +12°C° 0.1 mm 0 mps 584 mmHg 98%
06:00 +12°C° 0.1 mm 0 mps 585 mmHg 98%
07:00 +12°C° 0.1 mm 0 mps 585 mmHg 98%
08:00 +14°C° 0.1 mm 0 mps 586 mmHg 91%
09:00 +15°C° 0.1 mm 0 mps 586 mmHg 85%
10:00 +19°C° 0.1 mm 1 mps 587 mmHg 78%
11:00 +20°C° 0.2 mm 1 mps 587 mmHg 74%
12:00 +21°C° 0.2 mm 1 mps 587 mmHg 69%
13:00 +22°C° 0.2 mm 1 mps 587 mmHg 64%
14:00 +22°C° 0.5 mm 1 mps 586 mmHg 71%
15:00 +21°C° 0.5 mm 1 mps 585 mmHg 77%
16:00 +18°C° 0.5 mm 0 mps 585 mmHg 83%
17:00 +16°C° 0.4 mm 0 mps 584 mmHg 88%
18:00 +16°C° 0.4 mm 1 mps 584 mmHg 93%
19:00 +14°C° 0.4 mm 1 mps 584 mmHg 98%
20:00 +13°C° 0.2 mm 0 mps 584 mmHg 98%
21:00 +13°C° 0.2 mm 0 mps 585 mmHg 97%
22:00 +12°C° 0.2 mm 0 mps 585 mmHg 97%
23:00 +12°C° 0.2 mm 0 mps 585 mmHg 97%

5 Diciembre, Sábado

Tiempo Temperatura Precipitaciones Viento Presión Humedad
00:00 +12°C° 0.2 mm 0 mps 584 mmHg 97%
01:00 +11°C° 0.2 mm 0 mps 584 mmHg 97%
02:00 +11°C° 0.1 mm 0 mps 584 mmHg 97%
03:00 +11°C° 0.1 mm 0 mps 584 mmHg 97%
04:00 +11°C° 0.1 mm 0 mps 584 mmHg 98%
05:00 +11°C° 0 mm 0 mps 584 mmHg 97%
06:00 +11°C° 0 mm 0 mps 585 mmHg 97%
07:00 +12°C° 0 mm 0 mps 585 mmHg 97%
08:00 +14°C° 0 mm 0 mps 586 mmHg 88%
09:00 +18°C° 0 mm 1 mps 587 mmHg 80%
10:00 +20°C° 0 mm 1 mps 588 mmHg 71%
11:00 +21°C° 0.1 mm 1 mps 588 mmHg 68%
12:00 +22°C° 0.1 mm 1 mps 588 mmHg 65%
13:00 +23°C° 0.1 mm 1 mps 587 mmHg 61%
14:00 +22°C° 0.3 mm 1 mps 587 mmHg 66%
15:00 +21°C° 0.3 mm 1 mps 586 mmHg 72%
16:00 +21°C° 0.3 mm 1 mps 586 mmHg 77%
17:00 +19°C° 0.4 mm 1 mps 585 mmHg 84%
18:00 +16°C° 0.4 mm 1 mps 585 mmHg 91%
19:00 +14°C° 0.4 mm 1 mps 584 mmHg 98%
20:00 +14°C° 0.3 mm 1 mps 585 mmHg 98%
21:00 +12°C° 0.3 mm 0 mps 585 mmHg 98%
22:00 +12°C° 0.3 mm 0 mps 585 mmHg 98%
23:00 +12°C° 0.1 mm 0 mps 585 mmHg 98%

6 Diciembre, Domingo

Tiempo Temperatura Precipitaciones Viento Presión Humedad
00:00 +12°C° 0.1 mm 0 mps 584 mmHg 98%
01:00 +11°C° 0.1 mm 0 mps 584 mmHg 98%
02:00 +11°C° 0 mm 0 mps 584 mmHg 98%
03:00 +11°C° 0 mm 0 mps 584 mmHg 98%
04:00 +11°C° 0 mm 0 mps 584 mmHg 97%
05:00 +11°C° 0 mm 0 mps 584 mmHg 97%
06:00 +12°C° 0 mm 0 mps 585 mmHg 97%
07:00 +12°C° 0 mm 0 mps 585 mmHg 97%
08:00 +14°C° 0.2 mm 0 mps 586 mmHg 90%
09:00 +15°C° 0.2 mm 0 mps 587 mmHg 84%
10:00 +19°C° 0.2 mm 1 mps 588 mmHg 77%
11:00 +19°C° 0.6 mm 1 mps 587 mmHg 77%
12:00 +20°C° 0.6 mm 1 mps 587 mmHg 76%
13:00 +21°C° 0.6 mm 1 mps 586 mmHg 76%
14:00 +20°C° 0.9 mm 1 mps 586 mmHg 80%
15:00 +17°C° 0.9 mm 0 mps 585 mmHg 84%
16:00 +17°C° 0.9 mm 0 mps 585 mmHg 88%
17:00 +15°C° 0.7 mm 0 mps 585 mmHg 91%
18:00 +15°C° 0.7 mm 1 mps 584 mmHg 95%
19:00 +13°C° 0.7 mm 1 mps 584 mmHg 98%
20:00 +13°C° 0.3 mm 1 mps 585 mmHg 98%
21:00 +12°C° 0.3 mm 0 mps 585 mmHg 97%
22:00 +12°C° 0.3 mm 0 mps 585 mmHg 97%
23:00 +11°C° 0.2 mm 0 mps 585 mmHg 97%

7 Diciembre, Lunes

Tiempo Temperatura Precipitaciones Viento Presión Humedad
00:00 +11°C° 0.2 mm 0 mps 584 mmHg 97%
01:00 +11°C° 0.2 mm 0 mps 584 mmHg 97%
02:00 +11°C° 0.1 mm 0 mps 584 mmHg 97%
03:00 +10°C° 0.1 mm 0 mps 583 mmHg 97%
04:00 +10°C° 0.1 mm 0 mps 583 mmHg 98%
05:00 +11°C° 0 mm 0 mps 584 mmHg 97%
06:00 +11°C° 0 mm 0 mps 584 mmHg 96%
07:00 +12°C° 0 mm 0 mps 585 mmHg 96%
08:00 +13°C° 0.2 mm 0 mps 585 mmHg 90%
09:00 +16°C° 0.2 mm 1 mps 586 mmHg 84%
10:00 +19°C° 0.2 mm 1 mps 587 mmHg 79%
11:00 +19°C° 1 mm 1 mps 587 mmHg 79%
12:00 +20°C° 1 mm 1 mps 586 mmHg 79%
13:00 +21°C° 1 mm 1 mps 586 mmHg 79%
14:00 +18°C° 1.5 mm 0 mps 586 mmHg 82%
15:00 +18°C° 1.5 mm 0 mps 585 mmHg 86%
16:00 +17°C° 1.5 mm 0 mps 585 mmHg 89%
17:00 +16°C° 1.1 mm 0 mps 584 mmHg 92%
18:00 +14°C° 1.1 mm 0 mps 584 mmHg 95%
19:00 +14°C° 1.1 mm 1 mps 584 mmHg 98%
20:00 +12°C° 0.6 mm 0 mps 584 mmHg 98%
21:00 +12°C° 0.6 mm 0 mps 585 mmHg 97%
22:00 +12°C° 0.6 mm 0 mps 585 mmHg 97%
23:00 +12°C° 0.1 mm 0 mps 585 mmHg 97%
Mostrar más

Necesitamos Su Consentimiento

Meteoprog y nuestros Proveedores de Servicios pueden almacenar y acceder a sus datos personales como cookies, identificadores de dispositivo u otras tecnologías similares de su dispositivo y procesar dichos datos para personalizar contenido y anuncios, además de ofrecer funciones de redes sociales y analizar el tráfico.

  • Almacenar y/o acceder a información en su dispositivo

    Se puede almacenar o acceder a cookies, identificadores de dispositivo u otra información de su dispositivo para los fines anteriormente indicados.

  • Anuncios y contenido personalizados, medición de anuncios y contenido, percepciones del público, y desarrollo de productos

    Los anuncios y el contenido pueden personalizarse en base a su perfil. Se pueden añadir más datos para personalizar mejor los anuncios y contenidos. Se puede medir el rendimiento de los anuncios y contenidos. Se puede obtener la percepción sobre el público que ha visto los anuncios y contenidos. Dichos datos pueden usarse para desarrollar o mejorar la experiencia del usuario, sistemas y software.

Al hacer clic en ‘Estoy De Acuerdo’ usted permitirá el uso de las cookies, identificadores de dispositivo, balizas web u otras tecnologías similares indicadas. Su configuración puede cambiarse desde el navegador de su dispositivo.

Para ciertos fines, los intereses legítimos pueden ser considerados por encima del consentimiento. Puede leer más sobre ello en nuestra Política de Privacidad y Cookies.